| time (UTC) | temp F | wind direction | speed MPH | gust MPH | rain 1hr in | rain 24hr in | rain mn in | humidity % | barometer mb |
| 20260901021525 | 87 | 94 | 9.0 | 18.0 | 0.00 | 0.00 | 0.00 | 35 | 1006.6 |
| 20260901020027 | 87 | 121 | 7.0 | 13.0 | 0.00 | 0.00 | 0.00 | 35 | 1006.4 |
| 20260901014524 | 88 | 128 | 7.0 | 13.0 | 0.00 | 0.00 | 0.00 | 34 | 1006.2 |
| 20260901013029 | 89 | 152 | 9.0 | 15.0 | 0.00 | 0.00 | 0.00 | 33 | 1005.9 |
| 20260901011522 | 90 | 134 | 8.0 | 16.0 | 0.00 | 0.00 | 0.00 | 32 | 1005.6 |
| 20260901010028 | 90 | 108 | 10.0 | 17.0 | 0.00 | 0.00 | 0.00 | 31 | 1005.5 |
| 20260901004521 | 91 | 98 | 8.0 | 16.0 | 0.00 | 0.00 | 0.00 | 29 | 1005.5 |
| 20260901003030 | 92 | 106 | 8.0 | 14.0 | 0.00 | 0.00 | 0.00 | 29 | 1005.5 |
| 20260901001521 | 92 | 98 | 8.0 | 13.0 | 0.00 | 0.00 | 0.00 | 29 | 1005.5 |
| 20260901000020 | 92 | 112 | 7.0 | 16.0 | 0.00 | 0.00 | 0.00 | 29 | 1005.5 |
| 20260831234521 | 93 | 120 | 7.0 | 12.0 | 0.00 | 0.00 | 0.00 | 29 | 1005.5 |
| 20260831233017 | 93 | 109 | 6.0 | 12.0 | 0.00 | 0.00 | 0.00 | 29 | 1005.7 |
| 20260831231516 | 93 | 98 | 7.0 | 16.0 | 0.00 | 0.00 | 0.00 | 29 | 1005.6 |
| 20260831230017 | 94 | 117 | 7.0 | 14.0 | 0.00 | 0.00 | 0.00 | 28 | 1005.8 |
| 20260831224514 | 94 | 111 | 7.0 | 11.0 | 0.00 | 0.00 | 0.00 | 28 | 1005.9 |
| 20260831223012 | 94 | 129 | 6.0 | 17.0 | 0.00 | 0.00 | 0.00 | 28 | 1005.8 |
| 20260831221522 | 94 | 81 | 7.0 | 14.0 | 0.00 | 0.00 | 0.00 | 28 | 1006.1 |
| 20260831220009 | 94 | 101 | 3.0 | 9.0 | 0.00 | 0.00 | 0.00 | 27 | 1006.1 |
| 20260831214506 | 94 | 102 | 5.0 | 12.0 | 0.00 | 0.00 | 0.00 | 29 | 1006.5 |
| 20260831213006 | 93 | 95 | 7.0 | 14.0 | 0.00 | 0.00 | 0.00 | 29 | 1006.6 |
| 20260831211503 | 92 | 94 | 4.0 | 13.0 | 0.00 | 0.00 | 0.00 | 29 | 1006.9 |
| 20260831210002 | 93 | 120 | 6.0 | 11.0 | 0.00 | 0.00 | 0.00 | 29 | 1007.1 |
| 20260831204504 | 93 | 360 | 6.0 | 20.0 | 0.00 | 0.00 | 0.00 | 29 | 1007.1 |
| 20260831203001 | 93 | 97 | 7.0 | 20.0 | 0.00 | 0.00 | 0.00 | 29 | 1007.0 |
| 20260831201600 | 94 | 86 | 4.0 | 11.0 | 0.00 | 0.00 | 0.00 | 29 | 1007.5 |
| 20260831200101 | 94 | 360 | 5.0 | 11.0 | 0.00 | 0.00 | 0.00 | 28 | 1007.7 |
| 20260831194629 | 95 | 133 | 5.0 | 9.0 | 0.00 | 0.00 | 0.00 | 28 | 1007.9 |
| 20260831193057 | 94 | 215 | 2.0 | 8.0 | 0.00 | 0.00 | 0.00 | 30 | 1007.9 |
| 20260831191552 | 93 | 99 | 6.0 | 11.0 | 0.00 | 0.00 | 0.00 | 30 | 1008.2 |
| 20260831190110 | 92 | 108 | 5.0 | 11.0 | 0.00 | 0.00 | 0.00 | 31 | 1008.2 |
| 20260831184557 | 91 | 84 | 6.0 | 17.0 | 0.00 | 0.00 | 0.00 | 32 | 1008.4 |
| 20260831183046 | 91 | 114 | 5.0 | 13.0 | 0.00 | 0.00 | 0.00 | 33 | 1008.7 |
| 20260831181548 | 91 | 117 | 6.0 | 14.0 | 0.00 | 0.00 | 0.00 | 33 | 1008.9 |
| 20260831180042 | 91 | 143 | 6.0 | 16.0 | 0.00 | 0.00 | 0.00 | 34 | 1009.0 |
| 20260831174541 | 91 | 162 | 7.0 | 15.0 | 0.00 | 0.00 | 0.00 | 35 | 1009.2 |
| 20260831173037 | 90 | 151 | 8.0 | 14.0 | 0.00 | 0.00 | 0.00 | 37 | 1009.3 |
| 20260831171533 | 90 | 178 | 6.0 | 15.0 | 0.00 | 0.00 | 0.00 | 37 | 1009.4 |
| 20260831170031 | 89 | 214 | 7.0 | 13.0 | 0.00 | 0.00 | 0.00 | 37 | 1009.5 |
| 20260831164528 | 88 | 156 | 7.0 | 16.0 | 0.00 | 0.00 | 0.00 | 43 | 1009.5 |
| 20260831163025 | 86 | 207 | 7.0 | 13.0 | 0.00 | 0.00 | 0.00 | 47 | 1009.5 |
| 20260831161521 | 85 | 154 | 7.0 | 13.0 | 0.00 | 0.00 | 0.00 | 50 | 1009.5 |
| 20260831160021 | 84 | 165 | 6.0 | 16.0 | 0.00 | 0.00 | 0.00 | 51 | 1009.4 |
| 20260831154523 | 83 | 165 | 7.0 | 14.0 | 0.00 | 0.00 | 0.00 | 53 | 1009.6 |
| 20260831153012 | 82 | 360 | 8.0 | 14.0 | 0.00 | 0.00 | 0.00 | 55 | 1009.5 |
| 20260831151502 | 81 | 162 | 9.0 | 17.0 | 0.00 | 0.00 | 0.00 | 56 | 1009.4 |
| 20260831150103 | 80 | 164 | 8.0 | 15.0 | 0.00 | 0.00 | 0.00 | 58 | 1009.4 |
| 20260831144559 | 79 | 199 | 9.0 | 15.0 | 0.00 | 0.00 | 0.00 | 60 | 1009.3 |
| 20260831143054 | 78 | 149 | 9.0 | 21.0 | 0.00 | 0.00 | 0.00 | 62 | 1009.6 |
| 20260831141555 | 77 | 167 | 9.0 | 16.0 | 0.00 | 0.00 | 0.00 | 64 | 1009.6 |
| 20260831140047 | 76 | 196 | 8.0 | 16.0 | 0.00 | 0.00 | 0.00 | 64 | 1009.6 |
| 20260831134552 | 75 | 160 | 8.0 | 15.0 | 0.00 | 0.00 | 0.00 | 63 | 1009.3 |
| 20260831133038 | 74 | 200 | 7.0 | 15.0 | 0.00 | 0.00 | 0.00 | 63 | 1009.0 |
| 20260831131533 | 74 | 151 | 7.0 | 13.0 | 0.00 | 0.00 | 0.00 | 63 | 1008.7 |
| 20260831130028 | 73 | 160 | 7.0 | 14.0 | 0.00 | 0.00 | 0.00 | 63 | 1008.6 |
| 20260831124524 | 73 | 180 | 5.0 | 10.0 | 0.00 | 0.00 | 0.00 | 62 | 1008.4 |
| 20260831123019 | 73 | 194 | 4.0 | 8.0 | 0.00 | 0.00 | 0.00 | 61 | 1008.3 |
| 20260831121523 | 73 | 165 | 6.0 | 11.0 | 0.00 | 0.00 | 0.00 | 60 | 1008.1 |
| 20260831120027 | 74 | 179 | 7.0 | 12.0 | 0.00 | 0.00 | 0.00 | 59 | 1008.2 |
| 20260831114512 | 74 | 157 | 6.0 | 13.0 | 0.00 | 0.00 | 0.00 | 58 | 1008.1 |
| 20260831113006 | 74 | 191 | 7.0 | 13.0 | 0.00 | 0.00 | 0.00 | 58 | 1008.2 |
| 20260831111501 | 75 | 198 | 6.0 | 11.0 | 0.00 | 0.00 | 0.00 | 57 | 1008.3 |
| 20260831110059 | 75 | 193 | 7.0 | 11.0 | 0.00 | 0.00 | 0.00 | 57 | 1008.1 |
| 20260831104600 | 75 | 198 | 5.0 | 10.0 | 0.00 | 0.00 | 0.00 | 56 | 1008.1 |
| 20260831103053 | 75 | 197 | 6.0 | 11.0 | 0.00 | 0.00 | 0.00 | 56 | 1008.1 |
| 20260831101549 | 75 | 195 | 7.0 | 11.0 | 0.00 | 0.00 | 0.00 | 55 | 1007.9 |
| 20260831100047 | 76 | 200 | 7.0 | 12.0 | 0.00 | 0.00 | 0.00 | 55 | 1007.9 |
| 20260831094552 | 76 | 178 | 7.0 | 12.0 | 0.00 | 0.00 | 0.00 | 54 | 1007.8 |
| 20260831093059 | 77 | 206 | 7.0 | 13.0 | 0.00 | 0.00 | 0.00 | 53 | 1007.8 |
| 20260831091546 | 77 | 191 | 6.0 | 12.0 | 0.00 | 0.00 | 0.00 | 53 | 1007.6 |
| 20260831090033 | 77 | 202 | 8.0 | 16.0 | 0.00 | 0.00 | 0.00 | 53 | 1007.5 |
| 20260831084607 | 77 | 226 | 7.0 | 14.0 | 0.00 | 0.00 | 0.00 | 52 | 1007.6 |
| 20260831083024 | 78 | 179 | 5.0 | 13.0 | 0.00 | 0.00 | 0.00 | 51 | 1007.5 |
| 20260831081523 | 78 | 210 | 6.0 | 10.0 | 0.00 | 0.00 | 0.00 | 50 | 1007.6 |
| 20260831080035 | 78 | 208 | 6.0 | 11.0 | 0.00 | 0.00 | 0.00 | 49 | 1007.7 |
| 20260831074522 | 78 | 216 | 5.0 | 10.0 | 0.00 | 0.00 | 0.00 | 47 | 1007.6 |
| 20260831073006 | 78 | 199 | 5.0 | 10.0 | 0.00 | 0.00 | 0.00 | 46 | 1007.9 |
| 20260831071502 | 79 | 177 | 5.0 | 9.0 | 0.00 | 0.00 | 0.00 | 45 | 1007.8 |
| 20260831070058 | 79 | 165 | 5.0 | 12.0 | 0.00 | 0.00 | 0.00 | 43 | 1007.8 |
| 20260831064557 | 80 | 193 | 6.0 | 12.0 | 0.00 | 0.00 | 0.00 | 42 | 1007.8 |
| 20260831063106 | 80 | 202 | 5.0 | 9.0 | 0.00 | 0.00 | 0.00 | 41 | 1007.8 |
| 20260831061547 | 81 | 196 | 5.0 | 9.0 | 0.00 | 0.00 | 0.00 | 41 | 1007.9 |
| 20260831060140 | 81 | 200 | 5.0 | 11.0 | 0.00 | 0.00 | 0.00 | 40 | 1007.8 |
| 20260831054540 | 82 | 202 | 6.0 | 12.0 | 0.00 | 0.00 | 0.00 | 39 | 1007.9 |
| 20260831053050 | 82 | 180 | 6.0 | 15.0 | 0.00 | 0.00 | 0.00 | 38 | 1007.8 |
| 20260831051541 | 83 | 179 | 8.0 | 15.0 | 0.00 | 0.00 | 0.00 | 37 | 1007.7 |
| 20260831050038 | 83 | 145 | 6.0 | 13.0 | 0.00 | 0.00 | 0.00 | 36 | 1007.7 |
| 20260831044538 | 84 | 165 | 7.0 | 13.0 | 0.00 | 0.00 | 0.00 | 36 | 1007.6 |
| 20260831043041 | 84 | 146 | 6.0 | 11.0 | 0.00 | 0.00 | 0.00 | 35 | 1007.5 |
| 20260831041543 | 85 | 149 | 5.0 | 10.0 | 0.00 | 0.00 | 0.00 | 35 | 1007.3 |
| 20260831040040 | 85 | 153 | 5.0 | 10.0 | 0.00 | 0.00 | 0.00 | 35 | 1007.2 |
| 20260831034535 | 86 | 153 | 5.0 | 13.0 | 0.00 | 0.00 | 0.00 | 35 | 1007.0 |
| 20260831033036 | 86 | 143 | 6.0 | 13.0 | 0.00 | 0.00 | 0.00 | 34 | 1006.9 |
| 20260831031534 | 87 | 153 | 7.0 | 13.0 | 0.00 | 0.00 | 0.00 | 34 | 1006.8 |
| 20260831030043 | 87 | 149 | 6.0 | 11.0 | 0.00 | 0.00 | 0.00 | 33 | 1006.6 |
| 20260831024536 | 88 | 148 | 5.0 | 12.0 | 0.00 | 0.00 | 0.00 | 33 | 1006.4 |
| 20260831023032 | 88 | 134 | 6.0 | 12.0 | 0.00 | 0.00 | 0.00 | 32 | 1006.1 |